K9SAT Weather Reports


time (UTC)temp
C
wind
direction
speed
KPH
gust
KPH
rain 1hr
cm
rain 24hr
cm
rain mn
cm
humidity
%
barometer
mb
20260508014538 26 179 9.7 24.1 0.00 0.00 0.00 15 1012.8
20260508013038 27 252 11.3 20.9 0.00 0.00 0.00 15 1012.8
20260508011540 27 167 6.4 14.5 0.00 0.00 0.00 15 1012.9
20260508010038 26 151 3.2 38.6 0.00 0.00 0.00 14 1013.1
20260508004541 27 231 12.9 25.7 0.00 0.00 0.00 13 1013.1
20260508003038 28 113 9.7 29.0 0.00 0.00 0.00 13 1012.4
20260508001538 27 352 1.6 8.0 0.00 0.00 0.00 12 1012.3
20260508000037 27 332 4.8 9.7 0.00 0.00 0.00 12 1012.3
20260507234549 28 75 4.8 12.9 0.00 0.00 0.00 12 1012.3
20260507233038 28 309 9.7 29.0 0.00 0.00 0.00 12 1012.1
20260507231550 29 305 8.0 16.1 0.00 0.00 0.00 12 1012.3
20260507230048 28 338 9.7 17.7 0.00 0.00 0.00 12 1012.4
20260507224545 28 282 8.0 16.1 0.00 0.00 0.00 12 1012.5
20260507223043 28 355 8.0 20.9 0.00 0.00 0.00 13 1012.3
20260507221542 28 270 8.0 20.9 0.00 0.00 0.00 13 1012.6
20260507220038 28 4 9.7 16.1 0.00 0.00 0.00 12 1012.9
20260507214544 27 355 9.7 14.5 0.00 0.00 0.00 12 1012.9
20260507213045 28 51 12.9 51.5 0.00 0.00 0.00 12 1013.2
20260507211539 28 309 3.2 16.1 0.00 0.00 0.00 11 1013.1
20260507210045 30 163 4.8 14.5 0.00 0.00 0.00 10 1013.4
20260507204545 30 140 3.2 20.9 0.00 0.00 0.00 11 1013.5
20260507203043 29 176 3.2 9.7 0.00 0.00 0.00 12 1013.8
20260507201539 29 128 1.6 11.3 0.00 0.00 0.00 12 1013.9
20260507200038 30 162 8.0 19.3 0.00 0.00 0.00 11 1014.2
20260507194544 27 13 6.4 19.3 0.00 0.00 0.00 12 1014.3
20260507193050 30 140 1.6 24.1 0.00 0.00 0.00 12 1014.4
20260507191542 30 108 8.0 20.9 0.00 0.00 0.00 11 1014.6
20260507190041 28 158 6.4 20.9 0.00 0.00 0.00 13 1015.0
20260507184537 27 78 9.7 20.9 0.00 0.00 0.00 15 1014.9
20260507183045 26 259 4.8 22.5 0.00 0.00 0.00 15 1015.1
20260507181543 26 116 12.9 27.4 0.00 0.00 0.00 15 1015.1
20260507180044 26 328 1.6 11.3 0.00 0.00 0.00 16 1015.3
20260507174539 26 97 4.8 19.3 0.00 0.00 0.00 15 1015.4
20260507173044 26 99 3.2 12.9 0.00 0.00 0.00 16 1015.7
20260507171550 25 340 3.2 11.3 0.00 0.00 0.00 18 1015.9
20260507170050 24 29 0.0 6.4 0.00 0.00 0.00 18 1016.1
20260507164539 24 0 0.0 8.0 0.00 0.00 0.00 18 1016.2
20260507163041 23 14 1.6 9.7 0.00 0.00 0.00 18 1016.4
20260507161539 23 0 0.0 3.2 0.00 0.00 0.00 20 1016.4
20260507160041 23 146 1.6 3.2 0.00 0.00 0.00 21 1016.6
20260507154545 22 122 1.6 11.3 0.00 0.00 0.00 22 1016.6
20260507153041 21 117 4.8 12.9 0.00 0.00 0.00 24 1016.7
20260507151543 21 132 6.4 9.7 0.00 0.00 0.00 25 1016.9
20260507150039 20 127 3.2 9.7 0.00 0.00 0.00 25 1016.8
20260507144600 19 140 3.2 14.5 0.00 0.00 0.00 26 1017.0
20260507143038 18 115 4.8 14.5 0.00 0.00 0.00 28 1017.0
20260507141540 17 127 4.8 12.9 0.00 0.00 0.00 30 1017.1
20260507140041 16 110 6.4 12.9 0.00 0.00 0.00 31 1017.1
20260507134547 15 169 6.4 12.9 0.00 0.00 0.00 32 1016.9
20260507133039 14 127 4.8 12.9 0.00 0.00 0.00 33 1016.8
20260507131541 13 122 4.8 12.9 0.00 0.00 0.00 35 1016.8
20260507130038 12 115 4.8 11.3 0.00 0.00 0.00 36 1016.7
20260507124537 12 129 4.8 11.3 0.00 0.00 0.00 37 1016.6
20260507123036 12 114 4.8 11.3 0.00 0.00 0.00 36 1016.5
20260507121543 12 134 4.8 11.3 0.00 0.00 0.00 36 1016.4
20260507120042 12 130 4.8 8.0 0.00 0.00 0.00 37 1016.4
20260507114538 12 124 3.2 11.3 0.00 0.00 0.00 36 1016.4
20260507113038 13 131 4.8 8.0 0.00 0.00 0.00 37 1016.5
20260507111544 12 126 3.2 9.7 0.00 0.00 0.00 38 1016.5
20260507110044 12 99 3.2 8.0 0.00 0.00 0.00 38 1016.6
20260507104540 12 133 3.2 8.0 0.00 0.00 0.00 38 1016.5
20260507103043 12 138 3.2 6.4 0.00 0.00 0.00 38 1016.6
20260507101547 12 131 3.2 6.4 0.00 0.00 0.00 37 1016.6
20260507100042 13 131 4.8 9.7 0.00 0.00 0.00 37 1016.7
20260507094544 13 126 3.2 9.7 0.00 0.00 0.00 37 1016.6
20260507093042 13 139 1.6 4.8 0.00 0.00 0.00 37 1016.6
20260507091543 13 141 0.0 3.2 0.00 0.00 0.00 36 1016.7
20260507090041 13 131 0.0 4.8 0.00 0.00 0.00 36 1016.7
20260507084545 13 106 1.6 4.8 0.00 0.00 0.00 37 1016.9
20260507083039 13 130 1.6 6.4 0.00 0.00 0.00 37 1017.1
20260507081539 13 0 0.0 3.2 0.00 0.00 0.00 36 1017.2
20260507080045 14 137 3.2 6.4 0.00 0.00 0.00 35 1017.1
20260507074540 15 143 0.0 3.2 0.00 0.00 0.00 33 1017.1
20260507073043 15 126 1.6 3.2 0.00 0.00 0.00 33 1017.2
20260507071539 15 167 3.2 6.4 0.00 0.00 0.00 32 1017.0
20260507070038 15 172 1.6 4.8 0.00 0.00 0.00 32 1017.1
20260507064538 16 153 3.2 4.8 0.00 0.00 0.00 31 1017.1
20260507063045 16 138 0.0 3.2 0.00 0.00 0.00 31 1017.1
20260507061541 16 143 1.6 3.2 0.00 0.00 0.00 31 1017.0
20260507060052 16 138 0.0 3.2 0.00 0.00 0.00 32 1017.0
20260507054547 16 169 1.6 6.4 0.00 0.00 0.00 31 1016.9
20260507053041 16 173 3.2 8.0 0.00 0.00 0.00 31 1016.8
20260507051538 17 186 3.2 4.8 0.00 0.00 0.00 28 1016.7
20260507050043 18 245 3.2 6.4 0.00 0.00 0.00 26 1016.5
20260507044553 18 255 1.6 6.4 0.00 0.00 0.00 26 1016.5
20260507043038 18 324 0.0 3.2 0.00 0.00 0.00 25 1016.5
20260507041541 19 304 1.6 4.8 0.00 0.00 0.00 25 1016.3
20260507040041 20 351 0.0 6.4 0.00 0.00 0.00 24 1016.3
20260507034541 20 320 3.2 6.4 0.00 0.00 0.00 23 1016.2
20260507033043 20 292 3.2 8.0 0.00 0.00 0.00 23 1016.0
20260507031539 20 322 3.2 6.4 0.00 0.00 0.00 23 1015.7
20260507030038 21 332 3.2 9.7 0.00 0.00 0.00 23 1015.7
20260507024542 21 320 4.8 9.7 0.00 0.00 0.00 23 1015.5
20260507023038 22 316 4.8 11.3 0.00 0.00 0.00 23 1015.4
20260507021546 22 307 3.2 11.3 0.00 0.00 0.00 22 1015.4
20260507020047 22 343 6.4 9.7 0.00 0.00 0.00 21 1015.3